Regional Weather Roundup
Issued by NWS

Home | Current Version | Previous Version | Graphics & Text | Print | Product List | Glossary On
Versions: 1 2 3 4 5 6 7 8 9 10 11 12 13 14 15 16 17 18 19 20 21 22 23 24 25 26 27 28 29 30 31 32 33 34 35 36 37 38 39 40 41 42 43 44 45 46 47 48 49 50
000
ASUS44 KMEG 040310
RWRTN
TENNESSEE HOURLY STATE WEATHER ROUNDUP
NATIONAL WEATHER SERVICE MEMPHIS TN
1000 PM CDT SUN MAY 03 2015

TNZ002-004-019-021-049-052-054-088>092-040400-
WEST TENNESSEE

CITY           SKY/WX    TMP DP  RH WIND       PRES   REMARKS
MEMPHIS INTL   PTCLDY    68  52  56 S5        30.07R
NWS MEMPHIS      N/A     64 N/A N/A MISG        N/A
JACKSON        CLEAR     59  53  80 S3        30.10R
DYERSBURG      CLEAR     68  43  40 SE6       30.08R
PARIS          CLEAR     63  48  59 S7        30.10S
LEXINGTON      CLEAR     57  54  88 CALM      30.11R
$$

TNZ008-025-027-028-033-062-065-066-040400-
NORTH MIDDLE TENNESSEE

CITY           SKY/WX    TMP DP  RH WIND       PRES   REMARKS
NASHVILLE      PTCLDY    64  52  64 S5        30.13R
CLARKSVILLE    CLEAR     62  50  64 SE3       30.11R
SMYRNA         CLEAR     61  53  74 CALM      30.14R
COOKEVILLE     CLEAR     54  52  94 CALM      30.16R
CROSSVILLE     CLEAR     62  46  55 SW3       30.20R
$$

TNZ061-075-076-078-094-096-097-040400-
SOUTH MIDDLE TENNESSEE

CITY           SKY/WX    TMP DP  RH WIND       PRES   REMARKS
FAYETTEVILLE     N/A     63  48  59 CALM      30.16R
TULLAHOMA      CLEAR     57  48  72 CALM      30.18R
WINCHESTER     CLEAR     61  52  72 CALM      30.17S
MCMINNVILLE    CLEAR     59  54  82 CALM      30.17R
COLUMBIA       CLEAR     61  54  77 S5        30.12S
SHELBYVILLE    CLEAR     61  54  77 E5        30.16R
$$

TNZ017-018-042-046-047-040400-
NORTHEAST TENNESSEE

CITY           SKY/WX    TMP DP  RH WIND       PRES   REMARKS
TRI CITIES     MOCLDY    56  47  71 CALM      30.19R
ELIZABETHTON   CLEAR     54  45  71 CALM      30.20R
$$

TNZ012-013-036-069-073-074-040400-
CENTRAL EAST TENNESSEE

CITY           SKY/WX    TMP DP  RH WIND       PRES   REMARKS
KNOXVILLE      MOCLDY    66  50  56 CALM      30.17R
OAK RIDGE      PTCLDY    61  51  70 CALM      30.18R
GATLINBURG     CLEAR     59  48  67 CALM      30.18R
MORRISTOWN     CLEAR     61  50  67 CALM      30.19R
$$

TNZ083-085-099-040400-
SOUTHEAST TENNESSEE

CITY           SKY/WX    TMP DP  RH WIND       PRES   REMARKS
CHATTANOOGA    MOCLDY    62  53  72 CALM      30.17R
$$

SKY/WX REPORTED AS FAIR MEANS FEW OR NO CLOUDS BELOW
12 THOUSAND FEET.




USA.gov is the U.S. government's official web portal to all federal, state and local government web resources and services.